| time (UTC) | temp C | wind direction | speed KPH | gust KPH | rain 1hr cm | rain 24hr cm | rain mn cm | humidity % | barometer mb |
| 20260507071553 | 16 | 185 | 4.8 | 16.1 | 0.00 | 0.00 | 0.00 | 79 | 1009.5 |
| 20260507070137 | 16 | 189 | 6.4 | 17.7 | 0.00 | 0.00 | 0.00 | 80 | 1009.3 |
| 20260507064553 | 16 | 0 | 0.0 | 4.8 | 0.00 | 0.00 | 0.00 | 82 | 1009.1 |
| 20260507063101 | 15 | 188 | 0.0 | 12.9 | 0.00 | 0.00 | 0.00 | 83 | 1009.1 |
| 20260507061556 | 15 | 192 | 3.2 | 14.5 | 0.00 | 0.00 | 0.00 | 83 | 1009.1 |
| 20260507060100 | 15 | 197 | 4.8 | 14.5 | 0.00 | 0.00 | 0.00 | 83 | 1009.1 |
| 20260507054608 | 15 | 187 | 1.6 | 11.3 | 0.00 | 0.00 | 0.00 | 84 | 1008.8 |
| 20260507053054 | 14 | 0 | 0.0 | 6.4 | 0.00 | 0.00 | 0.00 | 86 | 1008.5 |
| 20260507051552 | 13 | 0 | 0.0 | 1.6 | 0.00 | 0.00 | 0.00 | 89 | 1008.3 |
| 20260507050056 | 13 | 0 | 0.0 | 1.6 | 0.00 | 0.00 | 0.00 | 90 | 1008.3 |
| 20260507044559 | 13 | 0 | 0.0 | 1.6 | 0.00 | 0.00 | 0.00 | 90 | 1008.2 |
| 20260507043052 | 13 | 0 | 0.0 | 3.2 | 0.00 | 0.00 | 0.00 | 90 | 1007.9 |
| 20260507041552 | 13 | 0 | 0.0 | 1.6 | 0.00 | 0.00 | 0.00 | 90 | 1007.8 |
| 20260507040053 | 13 | 0 | 0.0 | 0.0 | 0.00 | 0.00 | 0.00 | 89 | 1007.4 |
| 20260507034553 | 13 | 0 | 0.0 | 0.0 | 0.00 | 0.00 | 0.00 | 89 | 1007.4 |
| 20260507033052 | 13 | 0 | 0.0 | 3.2 | 0.00 | 0.00 | 0.00 | 88 | 1007.3 |
| 20260507031554 | 13 | 0 | 0.0 | 3.2 | 0.00 | 0.00 | 0.00 | 88 | 1007.4 |
| 20260507030106 | 13 | 0 | 0.0 | 1.6 | 0.00 | 0.00 | 0.00 | 86 | 1007.1 |
| 20260507024605 | 13 | 0 | 0.0 | 0.0 | 0.00 | 0.00 | 0.00 | 85 | 1007.0 |
| 20260507023055 | 13 | 0 | 0.0 | 0.0 | 0.00 | 0.00 | 0.00 | 85 | 1006.7 |
| 20260507021613 | 13 | 0 | 0.0 | 0.0 | 0.00 | 0.00 | 0.00 | 87 | 1006.8 |
| 20260507020103 | 13 | 0 | 0.0 | 0.0 | 0.00 | 0.00 | 0.00 | 87 | 1006.7 |
| 20260507014614 | 13 | 0 | 0.0 | 0.0 | 0.00 | 0.00 | 0.00 | 87 | 1006.8 |
| 20260507013116 | 13 | 0 | 0.0 | 0.0 | 0.00 | 0.00 | 0.00 | 86 | 1006.6 |
| 20260507011559 | 13 | 0 | 0.0 | 0.0 | 0.00 | 0.00 | 0.00 | 85 | 1006.5 |
| 20260507010118 | 13 | 0 | 0.0 | 0.0 | 0.00 | 0.00 | 0.00 | 84 | 1006.5 |
| 20260507004608 | 14 | 0 | 0.0 | 0.0 | 0.00 | 0.00 | 0.00 | 83 | 1006.7 |
| 20260507003102 | 14 | 0 | 0.0 | 0.0 | 0.00 | 0.00 | 0.00 | 82 | 1006.7 |
| 20260507001607 | 15 | 0 | 0.0 | 0.0 | 0.00 | 0.00 | 0.00 | 81 | 1006.5 |
| 20260507000059 | 15 | 0 | 0.0 | 0.0 | 0.00 | 0.00 | 0.00 | 79 | 1006.6 |
| 20260506234609 | 15 | 0 | 0.0 | 0.0 | 0.00 | 0.00 | 0.00 | 77 | 1006.6 |
| 20260506233059 | 16 | 0 | 0.0 | 0.0 | 0.00 | 0.00 | 0.00 | 74 | 1006.6 |
| 20260506231603 | 17 | 0 | 0.0 | 0.0 | 0.00 | 0.00 | 0.00 | 71 | 1006.7 |
| 20260506230103 | 17 | 0 | 0.0 | 0.0 | 0.00 | 0.00 | 0.00 | 69 | 1006.7 |
| 20260506224558 | 17 | 0 | 0.0 | 0.0 | 0.00 | 0.00 | 0.00 | 68 | 1006.6 |
| 20260506223058 | 17 | 0 | 0.0 | 1.6 | 0.00 | 0.00 | 0.00 | 66 | 1006.6 |
| 20260506221558 | 18 | 0 | 0.0 | 0.0 | 0.00 | 0.00 | 0.00 | 65 | 1006.4 |
| 20260506220057 | 18 | 0 | 0.0 | 0.0 | 0.00 | 0.00 | 0.00 | 64 | 1006.3 |
| 20260506214554 | 18 | 0 | 0.0 | 0.0 | 0.00 | 0.00 | 0.00 | 62 | 1006.2 |
| 20260506213054 | 19 | 0 | 0.0 | 3.2 | 0.00 | 0.00 | 0.00 | 61 | 1006.2 |
| 20260506211554 | 19 | 196 | 0.0 | 3.2 | 0.00 | 0.00 | 0.00 | 61 | 1006.2 |
| 20260506210055 | 19 | 0 | 0.0 | 6.4 | 0.00 | 0.00 | 0.00 | 61 | 1006.1 |
| 20260506204555 | 19 | 0 | 0.0 | 4.8 | 0.00 | 0.00 | 0.00 | 61 | 1006.1 |
| 20260506203055 | 19 | 0 | 0.0 | 4.8 | 0.00 | 0.00 | 0.00 | 61 | 1006.0 |
| 20260506201610 | 19 | 0 | 0.0 | 0.0 | 0.00 | 0.00 | 0.00 | 62 | 1005.8 |
| 20260506200052 | 19 | 0 | 0.0 | 0.0 | 0.00 | 0.00 | 0.00 | 61 | 1005.6 |
| 20260506194554 | 20 | 0 | 0.0 | 0.0 | 0.00 | 0.00 | 0.00 | 60 | 1005.7 |
| 20260506193054 | 20 | 0 | 0.0 | 0.0 | 0.00 | 0.00 | 0.00 | 59 | 1005.6 |
| 20260506191558 | 20 | 0 | 0.0 | 0.0 | 0.00 | 0.00 | 0.00 | 59 | 1005.6 |
| 20260506190054 | 21 | 0 | 0.0 | 0.0 | 0.00 | 0.00 | 0.00 | 58 | 1005.5 |
| 20260506184601 | 21 | 0 | 0.0 | 0.0 | 0.00 | 0.00 | 0.00 | 56 | 1005.3 |
| 20260506183055 | 21 | 0 | 0.0 | 0.0 | 0.00 | 0.00 | 0.00 | 54 | 1005.1 |
| 20260506181551 | 22 | 0 | 0.0 | 0.0 | 0.00 | 0.00 | 0.00 | 52 | 1005.1 |
| 20260506180056 | 22 | 0 | 0.0 | 6.4 | 0.00 | 0.00 | 0.00 | 51 | 1005.1 |
| 20260506174554 | 23 | 0 | 0.0 | 11.3 | 0.00 | 0.00 | 0.00 | 49 | 1005.1 |
| 20260506173113 | 24 | 0 | 1.6 | 9.7 | 0.00 | 0.00 | 0.00 | 49 | 1005.2 |
| 20260506171557 | 23 | 0 | 0.0 | 11.3 | 0.00 | 0.00 | 0.00 | 50 | 1005.0 |
| 20260506170057 | 23 | 0 | 0.0 | 8.0 | 0.00 | 0.00 | 0.00 | 50 | 1005.0 |
| 20260506164555 | 23 | 0 | 1.6 | 16.1 | 0.00 | 0.00 | 0.00 | 51 | 1005.2 |
| 20260506163109 | 23 | 0 | 0.0 | 6.4 | 0.00 | 0.00 | 0.00 | 52 | 1005.2 |
| 20260506161600 | 23 | 163 | 0.0 | 9.7 | 0.00 | 0.00 | 0.00 | 51 | 1005.3 |
| 20260506160054 | 23 | 0 | 0.0 | 9.7 | 0.00 | 0.00 | 0.00 | 50 | 1005.5 |
| 20260506154600 | 23 | 161 | 0.0 | 8.0 | 0.00 | 0.00 | 0.00 | 51 | 1005.8 |
| 20260506153052 | 23 | 175 | 0.0 | 8.0 | 0.00 | 0.00 | 0.00 | 51 | 1005.8 |
| 20260506151555 | 23 | 173 | 1.6 | 14.5 | 0.00 | 0.00 | 0.00 | 51 | 1005.9 |
| 20260506150053 | 23 | 198 | 6.4 | 14.5 | 0.00 | 0.00 | 0.00 | 50 | 1006.1 |
| 20260506144559 | 23 | 171 | 6.4 | 16.1 | 0.00 | 0.00 | 0.00 | 48 | 1006.1 |
| 20260506143053 | 23 | 0 | 8.0 | 19.3 | 0.00 | 0.00 | 0.00 | 49 | 1006.1 |
| 20260506141556 | 23 | 166 | 6.4 | 19.3 | 0.00 | 0.00 | 0.00 | 49 | 1006.4 |
| 20260506134557 | 24 | 0 | 6.4 | 20.9 | 0.00 | 0.00 | 0.00 | 47 | 1006.5 |
| 20260506133056 | 25 | 191 | 4.8 | 19.3 | 0.00 | 0.00 | 0.00 | 46 | 1006.4 |
| 20260506131558 | 24 | 254 | 3.2 | 20.9 | 0.00 | 0.00 | 0.00 | 48 | 1006.6 |
| 20260506130054 | 23 | 172 | 1.6 | 19.3 | 0.00 | 0.00 | 0.00 | 48 | 1006.8 |
| 20260506124558 | 23 | 167 | 6.4 | 20.9 | 0.00 | 0.00 | 0.00 | 49 | 1007.1 |
| 20260506123054 | 23 | 179 | 9.7 | 27.4 | 0.00 | 0.00 | 0.00 | 48 | 1007.1 |
| 20260506121600 | 23 | 169 | 4.8 | 22.5 | 0.00 | 0.00 | 0.00 | 52 | 1007.0 |
| 20260506120110 | 23 | 100 | 3.2 | 19.3 | 0.00 | 0.00 | 0.00 | 51 | 1007.0 |
| 20260506114610 | 22 | 145 | 6.4 | 19.3 | 0.00 | 0.00 | 0.00 | 52 | 1007.2 |
| 20260506113054 | 22 | 237 | 8.0 | 25.7 | 0.00 | 0.00 | 0.00 | 54 | 1007.0 |
| 20260506111555 | 22 | 176 | 3.2 | 22.5 | 0.00 | 0.00 | 0.00 | 54 | 1007.0 |
| 20260506110054 | 21 | 180 | 8.0 | 27.4 | 0.00 | 0.00 | 0.00 | 57 | 1007.1 |
| 20260506104555 | 21 | 178 | 11.3 | 25.7 | 0.00 | 0.00 | 0.00 | 56 | 1007.3 |
| 20260506103052 | 21 | 0 | 6.4 | 19.3 | 0.00 | 0.00 | 0.00 | 57 | 1007.1 |
| 20260506101557 | 21 | 189 | 6.4 | 20.9 | 0.00 | 0.00 | 0.00 | 57 | 1007.4 |
| 20260506100057 | 21 | 173 | 4.8 | 20.9 | 0.00 | 0.00 | 0.00 | 58 | 1007.3 |
| 20260506094557 | 20 | 302 | 6.4 | 27.4 | 0.00 | 0.00 | 0.00 | 61 | 1007.3 |
| 20260506093108 | 20 | 180 | 8.0 | 29.0 | 0.00 | 0.00 | 0.00 | 62 | 1007.4 |
| 20260506091555 | 20 | 169 | 11.3 | 27.4 | 0.00 | 0.00 | 0.00 | 61 | 1007.3 |
| 20260506090103 | 20 | 172 | 3.2 | 19.3 | 0.00 | 0.00 | 0.00 | 63 | 1007.1 |
| 20260506084556 | 20 | 178 | 9.7 | 25.7 | 0.00 | 0.00 | 0.00 | 64 | 1007.0 |
| 20260506083054 | 19 | 80 | 6.4 | 25.7 | 0.00 | 0.00 | 0.00 | 65 | 1006.8 |
| 20260506081553 | 18 | 174 | 3.2 | 25.7 | 0.00 | 0.00 | 0.00 | 67 | 1007.0 |
| 20260506080107 | 18 | 178 | 4.8 | 27.4 | 0.00 | 0.00 | 0.00 | 68 | 1006.8 |
| 20260506073111 | 17 | 190 | 8.0 | 25.7 | 0.00 | 0.00 | 0.00 | 68 | 1007.0 |